Temperature
1 1 2 2 2 2 2 2 2 3 3 4 4 4 4 5 5 6 6 6 6 6 7 7 7 7 8 8 8 8 8 8 7 7 7 7 7 7 7 7 7 7 7
0 0 1 1 1 2 2 2 2 2 3 3 3 4 4 4 5 5 5 6 6 6 6 6 7 7 7 7 7 7 7 7 7 7 7 7 7 7 7 7 7 7 7
-1 -0 0 1 1 1 1 2 2 2 2 3 3 3 3 4 4 4 5 5 5 5 6 6 6 6 7 7 7 7 7 7 7 7 7 7 7 6 6 6 6 6 6
-1 -1 -0 -0 0 1 1 1 1 2 2 2 2 3 3 3 4 4 4 4 5 5 5 5 6 6 6 6 7 7 7 6 6 6 6 6 6 6 6 6 6 6 6
-2 -1 -1 -1 -0 -0 0 1 1 1 1 2 2 2 3 3 3 4 4 4 4 4 4 5 5 5 6 6 6 6 6 6 6 6 6 6 6 6 6 6 5 5 5
-2 -2 -2 -1 -1 -1 -0 0 0 1 1 1 1 2 2 2 3 3 3 3 3 4 4 4 5 5 5 5 5 6 6 6 6 5 5 5 5 6 5 5 5 5 5
-3 -3 -2 -2 -2 -1 -1 -1 -1 -0 0 0 1 1 1 2 2 3 3 3 3 3 4 4 4 4 4 5 5 5 5 5 5 5 5 5 5 5 5 5 5 4 4
-4 -3 -3 -3 -2 -2 -2 -1 -1 -1 -1 -0 0 0 1 1 2 2 2 2 2 3 3 3 3 4 4 4 4 4 4 4 5 5 5 5 5 5 5 5 4 4 4
-4 -4 -4 -4 -3 -3 -2 -2 -2 -2 -1 -1 -1 -0 0 1 1 1 1 1 2 2 2 2 3 3 3 3 3 4 4 4 4 4 4 4 4 4 4 4 4 3 3
-5 -5 -5 -5 -4 -4 -3 -3 -3 -3 -2 -2 -1 -1 -1 -0 0 0 0 0 1 1 1 2 2 2 3 3 3 3 3 3 3 3 3 3 3 3 3 3 3 3 3
-6 -6 -5 -5 -5 -4 -4 -4 -4 -3 -3 -3 -2 -2 -1 -1 -1 -0 -0 -0 0 0 1 1 1 2 2 2 2 2 2 3 2 2 2 2 2 2 2 3 3 2 2
-6 -6 -6 -6 -5 -5 -5 -4 -4 -4 -4 -3 -3 -3 -2 -2 -1 -1 -1 -1 -1 -0 -0 0 1 1 1 1 1 2 2 2 2 2 2 2 2 2 2 2 2 2 2
-7 -6 -6 -6 -6 -6 -5 -5 -5 -5 -4 -4 -4 -3 -3 -3 -2 -2 -1 -1 -1 -1 -1 -0 -0 0 1 1 1 1 1 1 1 1 1 1 1 1 1 1 1 1 1
-7 -7 -7 -6 -6 -6 -6 -6 -5 -5 -5 -5 -5 -4 -4 -4 -3 -3 -2 -2 -2 -2 -1 -1 -1 -1 -0 -0 -0 0 0 0 0 1 1 1 1 0 0 0 0 0 0
-7 -7 -7 -7 -7 -6 -6 -6 -6 -6 -6 -5 -5 -5 -5 -4 -4 -3 -3 -3 -2 -2 -2 -2 -2 -1 -1 -1 -1 -1 -1 -1 -1 -0 -0 -0 -0 -0 -0 -0 -0 -0 -1
-8 -8 -7 -7 -7 -7 -7 -7 -7 -6 -6 -6 -6 -5 -5 -5 -4 -4 -3 -3 -3 -3 -2 -2 -2 -2 -2 -2 -2 -1 -1 -1 -1 -1 -1 -1 -1 -1 -1 -1 -1 -1 -1
-8 -8 -8 -8 -8 -8 -8 -7 -7 -7 -6 -6 -6 -6 -6 -5 -5 -4 -4 -4 -4 -3 -3 -3 -3 -3 -3 -3 -2 -2 -2 -2 -1 -1 -1 -1 -1 -1 -1 -1 -2 -2 -2
-9 -9 -8 -8 -8 -8 -8 -8 -8 -8 -7 -7 -7 -6 -6 -6 -5 -5 -5 -4 -4 -4 -4 -3 -3 -3 -3 -3 -3 -3 -2 -2 -2 -2 -2 -2 -2 -2 -2 -2 -2 -2 -2
-9 -9 -9 -9 -9 -9 -9 -8 -8 -8 -8 -8 -8 -7 -7 -6 -6 -6 -5 -5 -5 -5 -4 -4 -4 -4 -4 -3 -3 -3 -3 -3 -3 -2 -2 -2 -2 -3 -3 -2 -3 -3 -3
-9 -9 -9 -9 -9 -9 -9 -9 -9 -9 -9 -8 -8 -8 -8 -7 -7 -7 -6 -6 -5 -5 -5 -5 -5 -5 -4 -4 -4 -4 -3 -3 -3 -3 -3 -3 -3 -3 -3 -3 -3 -3 -3
-10 -10 -10 -10 -10 -10 -10 -10 -9 -9 -9 -9 -9 -8 -8 -8 -8 -8 -7 -7 -6 -6 -6 -6 -5 -5 -5 -5 -4 -4 -4 -4 -4 -4 -4 -3 -3 -4 -3 -3 -3 -4 -4
-10 -10 -10 -10 -10 -10 -10 -10 -10 -10 -10 -9 -9 -9 -9 -8 -8 -8 -8 -7 -7 -7 -6 -6 -6 -6 -6 -5 -5 -5 -5 -5 -4 -4 -4 -4 -4 -4 -4 -4 -4 -4 -4
-11 -10 -10 -10 -10 -10 -10 -10 -10 -10 -10 -10 -10 -9 -9 -9 -9 -8 -8 -8 -7 -7 -7 -7 -7 -7 -6 -6 -6 -6 -5 -5 -5 -5 -5 -5 -5 -5 -5 -5 -5 -5 -5
-11 -11 -11 -11 -11 -11 -11 -11 -11 -11 -10 -10 -10 -10 -9 -9 -9 -9 -8 -8 -8 -8 -8 -7 -7 -7 -7 -6 -6 -6 -6 -6 -6 -6 -6 -5 -5 -5 -5 -5 -5 -5 -6
-11 -11 -11 -11 -11 -11 -11 -11 -11 -11 -11 -11 -10 -10 -10 -10 -9 -9 -9 -9 -8 -8 -8 -8 -8 -7 -7 -7 -7 -6 -6 -6 -6 -6 -6 -6 -6 -6 -6 -6 -6 -6 -6
-12 -12 -12 -12 -12 -12 -12 -12 -12 -11 -11 -11 -11 -11 -10 -10 -10 -10 -9 -9 -9 -9 -8 -8 -8 -8 -8 -7 -7 -7 -7 -7 -7 -7 -7 -7 -7 -6 -6 -7 -7 -7 -7
Wind_Speed
6 6 5 5 5 4 4 4 4 5 5 6 6 6 6 6 6 6 7 8 9 9 8 8 9 8 7 6 6 6 6 6 6 4 3 4 5 6 6 6 6 5 6
6 6 6 6 5 5 5 5 4 5 5 5 5 6 6 6 7 7 8 9 9 10 9 9 9 7 8 7 6 7 7 7 6 6 4 4 5 6 6 6 5 5 5
6 6 6 6 5 5 5 5 5 5 5 5 5 6 6 6 7 8 8 9 9 9 9 10 9 9 9 7 8 7 6 6 6 6 5 3 3 4 5 5 5 5 5
6 6 6 6 6 6 5 5 5 5 5 5 6 6 6 6 7 6 6 7 7 8 8 9 9 10 9 9 8 8 7 7 6 6 5 4 4 4 5 5 5 5 4
6 6 6 7 6 6 5 5 5 6 6 6 6 6 6 6 6 6 6 6 6 6 6 7 8 8 8 8 7 8 8 7 6 6 5 5 5 5 6 5 5 4 4
7 7 7 6 6 6 5 5 5 5 6 5 5 6 6 5 5 6 5 5 6 6 6 6 6 6 7 8 8 9 9 9 8 7 6 7 8 7 6 5 5 4 4
6 6 6 6 6 6 6 5 5 5 5 5 5 5 6 6 5 5 5 5 5 6 6 6 5 5 7 7 7 7 8 8 9 8 8 9 8 7 7 7 7 6 4
7 6 6 6 6 6 6 5 5 5 5 5 5 6 6 5 5 5 4 5 5 6 7 7 7 7 7 8 7 7 8 8 8 8 8 7 7 7 7 6 6 4 1
7 8 7 7 6 6 6 6 5 5 5 5 5 6 6 5 5 5 5 5 5 6 7 7 7 8 8 8 8 8 7 6 6 7 6 5 5 6 7 5 5 4 3
8 8 8 7 7 6 6 6 5 5 5 5 5 5 5 5 4 4 5 4 5 5 5 6 7 8 8 9 8 8 8 7 5 4 4 4 5 6 8 7 6 6 3
8 8 7 7 7 7 6 6 5 4 4 4 4 4 4 4 4 5 5 5 5 5 5 5 5 7 8 9 8 8 8 6 5 6 5 4 3 3 4 5 4 5 4
8 8 8 7 7 6 6 5 4 4 4 4 4 4 3 3 3 4 5 5 5 5 5 4 4 4 5 6 7 6 7 6 5 5 5 4 4 4 3 4 4 3 1
8 8 8 8 7 6 6 5 4 3 3 3 3 3 3 2 2 3 3 4 4 4 4 3 3 3 4 4 5 5 5 5 5 5 5 5 4 4 3 3 3 3 2
7 7 7 7 6 6 5 4 3 3 2 3 3 3 3 3 3 2 2 2 2 3 2 2 3 3 3 3 3 3 4 4 5 5 5 4 3 3 3 3 3 3 2
7 7 7 6 6 5 5 4 4 3 3 3 3 3 3 3 4 5 4 3 3 3 3 2 2 2 2 2 3 3 3 3 4 4 4 4 4 4 3 3 3 3 3
6 6 5 5 5 5 5 4 5 4 5 5 5 5 4 4 5 5 4 4 4 4 3 3 3 3 3 3 3 3 3 3 4 4 4 4 4 4 4 3 3 4 4
6 6 5 5 5 5 4 4 4 5 5 5 6 6 5 4 5 4 4 3 3 3 3 3 3 3 3 3 3 3 3 2 3 4 4 4 4 4 4 4 4 4 4
6 6 6 5 5 4 4 4 4 4 4 4 5 5 5 5 5 4 3 2 2 2 2 3 3 3 3 3 3 2 3 2 3 3 4 4 4 4 5 5 5 5 4
6 5 5 5 5 4 4 4 3 4 3 4 4 4 5 5 4 4 3 2 2 2 2 2 2 2 2 2 2 2 3 3 3 3 3 4 4 4 5 5 5 5 5
5 6 6 5 4 4 4 3 3 3 3 3 4 4 4 3 3 3 3 2 1 1 2 2 2 2 2 2 2 2 2 2 3 3 3 3 3 4 5 5 5 5 5
5 5 6 5 4 3 3 3 3 3 3 3 3 4 5 3 2 3 2 2 2 2 2 2 2 2 2 2 2 2 3 2 3 3 3 3 3 3 3 4 4 4 4
4 4 4 4 4 3 3 3 3 3 3 3 4 4 5 3 2 2 2 2 2 2 2 2 2 2 2 2 2 2 3 2 2 2 2 3 3 3 3 3 3 3 4
4 4 4 4 3 4 4 3 3 3 3 4 4 3 3 3 3 3 3 3 2 2 2 2 2 2 2 2 2 2 3 3 3 3 3 3 3 3 3 3 4 4 4
4 4 4 4 3 3 3 3 3 4 4 4 4 3 3 3 3 3 3 3 3 3 2 2 2 2 2 2 2 2 2 3 3 3 4 4 3 3 3 3 4 4 4
4 4 4 4 4 4 4 4 4 4 4 4 4 3 3 3 3 3 3 3 3 3 3 3 2 2 2 2 3 3 3 3 3 3 3 3 3 3 3 3 3 3 3
4 4 4 4 4 4 4 4 4 4 4 4 3 3 3 3 3 3 3 3 3 3 3 3 3 3 3 3 3 3 3 3 3 3 3 3 3 3 4 3 4 4 4
Wind_Direction
308 302 305 297 286 275 264 262 264 264 257 246 249 243 239 242 237 235 226 216 212 210 209 213 213 208 203 202 202 206 209 209 218 222 213 196 201 195 186 193 196 198 203
309 301 303 302 291 279 274 272 272 268 261 252 248 249 244 241 237 240 233 222 216 212 210 210 215 208 205 204 203 205 207 205 208 216 213 203 214 204 195 195 198 205 210
309 301 300 300 293 284 275 273 271 271 268 259 251 249 250 244 237 237 237 230 222 218 212 209 212 210 207 205 205 207 208 203 204 209 212 206 217 202 200 203 203 206 212
309 299 296 295 291 290 286 281 274 270 267 260 253 251 253 250 241 236 236 236 228 225 218 215 215 212 211 208 206 206 203 198 194 196 202 204 209 202 202 205 211 214 215
304 298 296 295 293 292 287 280 277 271 265 261 254 252 254 248 243 236 232 235 230 225 221 219 221 220 219 216 210 205 201 200 195 198 200 204 205 195 206 205 214 215 224
304 299 299 297 296 295 291 280 276 273 268 262 257 252 252 249 252 243 237 231 230 225 223 221 221 218 216 216 216 209 204 202 202 202 208 210 214 210 204 202 200 205 222
309 307 306 303 299 296 293 283 280 276 272 266 264 259 252 252 247 237 239 235 231 231 229 223 218 215 213 215 213 210 211 213 211 210 213 217 214 207 197 200 205 211 227
315 310 310 307 301 300 298 289 286 281 274 271 269 263 255 251 242 236 237 232 235 236 235 230 222 216 212 209 211 216 220 220 217 217 218 220 216 206 203 203 202 206 205
322 320 315 308 303 302 301 294 291 286 280 274 268 264 258 253 238 235 238 229 229 237 239 234 229 222 206 201 206 211 217 221 213 208 213 206 194 187 183 176 177 186 219
320 317 316 311 303 299 295 294 289 282 279 277 270 263 257 254 251 243 238 229 229 235 238 234 230 224 207 200 208 209 213 214 198 190 187 181 180 180 184 197 197 198 204
318 317 316 313 307 301 295 290 282 280 281 278 274 271 267 262 259 255 245 230 228 234 236 234 231 216 209 206 213 217 215 208 198 191 190 187 174 177 188 197 202 202 203
321 320 319 316 313 310 303 296 286 278 277 278 279 283 283 273 269 270 268 244 238 237 240 238 227 207 206 208 215 211 201 195 192 187 186 191 191 194 193 183 174 168 176
321 320 321 322 318 314 311 304 297 287 276 275 273 278 289 291 285 282 273 263 249 240 236 224 215 204 203 207 199 195 196 196 191 190 194 201 198 188 175 166 150 135 105
319 319 320 322 320 320 315 308 298 288 280 281 281 279 285 289 286 279 265 258 245 232 225 196 193 202 207 197 194 201 208 201 196 195 194 188 173 169 179 187 190 177 176
317 317 320 320 319 320 318 314 309 300 286 278 275 272 274 281 284 279 264 247 233 216 201 212 213 202 208 205 198 199 197 193 195 190 185 180 180 182 189 187 192 192 203
315 318 318 318 319 319 320 321 327 316 325 317 302 288 284 288 300 292 276 265 242 204 203 206 212 210 214 218 205 201 205 205 200 192 189 190 188 188 189 189 193 200 208
308 310 310 312 314 316 316 317 321 327 330 333 330 317 306 308 311 302 285 274 238 209 205 205 210 209 210 221 213 207 212 214 200 192 192 192 190 189 190 195 199 206 217
305 307 308 308 310 310 309 309 308 314 323 325 331 338 330 322 322 316 300 278 244 234 218 214 216 218 213 218 217 206 204 201 193 188 190 192 192 192 194 200 203 209 215
309 309 307 306 307 307 308 308 306 308 311 316 324 332 338 334 334 337 324 274 242 240 230 224 225 224 226 224 223 212 204 202 194 188 189 191 196 196 201 205 208 208 214
309 312 308 303 303 304 307 306 307 309 310 312 318 322 328 335 338 336 336 311 274 260 245 231 230 229 231 229 225 215 206 203 197 197 197 196 199 202 206 208 209 209 212
308 308 307 300 299 298 299 300 300 300 304 308 311 319 327 323 316 314 317 313 283 266 261 251 238 234 232 230 226 216 210 212 207 205 204 205 204 208 211 210 211 211 211
305 305 306 302 298 298 297 297 293 292 297 300 304 313 325 318 308 310 313 311 304 290 279 264 255 246 238 233 225 219 212 213 214 214 214 211 207 208 207 207 206 206 206
302 307 309 307 302 300 300 296 295 295 297 297 300 305 311 313 309 305 304 303 306 309 310 294 274 266 260 255 237 225 221 222 224 219 216 213 210 208 204 204 203 204 208
303 306 310 309 306 301 298 297 296 296 299 301 302 302 303 305 306 308 309 314 318 314 310 301 282 272 274 283 271 257 249 247 240 224 215 213 213 210 205 205 209 211 211
307 305 307 305 301 300 299 298 298 299 299 298 297 297 300 302 302 304 307 311 315 313 313 307 295 285 281 283 278 266 249 243 241 230 219 214 210 208 206 208 209 207 208
307 307 305 304 299 297 295 293 294 294 291 292 293 293 293 294 296 297 300 301 305 303 303 302 300 297 295 288 277 264 246 239 234 226 225 217 210 209 207 210 209 208 206
Height
1488 1487 1488 1487 1488 1489 1489 1490 1491 1491 1492 1493 1494 1496 1497 1498 1500 1502 1504 1506 1509 1512 1514 1517 1519 1522 1524 1526 1529 1531 1533 1535 1536 1537 1539 1540 1541 1542 1543 1545 1546 1546 1547
1484 1484 1484 1484 1484 1485 1485 1486 1487 1488 1489 1489 1490 1491 1492 1494 1495 1497 1499 1501 1503 1505 1508 1511 1514 1516 1519 1521 1523 1525 1528 1530 1532 1532 1534 1535 1537 1538 1539 1540 1541 1542 1543
1482 1481 1481 1481 1481 1481 1481 1482 1483 1484 1484 1485 1486 1486 1487 1489 1490 1492 1494 1496 1498 1500 1502 1505 1508 1511 1513 1515 1518 1520 1522 1524 1526 1528 1529 1530 1532 1533 1534 1535 1536 1537 1538
1479 1478 1478 1477 1478 1478 1478 1478 1478 1479 1480 1480 1482 1482 1483 1484 1486 1487 1489 1490 1492 1495 1497 1500 1503 1505 1507 1510 1512 1515 1517 1519 1521 1522 1524 1525 1527 1528 1529 1530 1531 1533 1533
1475 1475 1474 1474 1474 1474 1473 1473 1474 1475 1475 1476 1477 1477 1478 1479 1480 1481 1483 1485 1488 1490 1492 1495 1498 1500 1502 1505 1507 1509 1511 1513 1515 1517 1518 1520 1521 1522 1523 1525 1526 1528 1528
1471 1471 1470 1470 1469 1469 1469 1469 1470 1470 1471 1471 1472 1472 1473 1474 1475 1477 1478 1481 1483 1485 1487 1490 1492 1494 1497 1499 1501 1503 1505 1507 1509 1511 1512 1514 1515 1517 1518 1519 1521 1522 1523
1468 1467 1466 1465 1465 1465 1465 1465 1465 1465 1466 1466 1467 1467 1467 1468 1470 1472 1473 1476 1477 1480 1482 1484 1486 1489 1491 1493 1495 1498 1499 1501 1503 1505 1507 1508 1510 1511 1513 1514 1515 1517 1517
1465 1464 1463 1462 1461 1461 1460 1460 1460 1461 1461 1461 1461 1462 1463 1463 1465 1466 1468 1470 1472 1474 1476 1479 1481 1483 1485 1487 1490 1492 1493 1495 1497 1499 1501 1503 1505 1506 1507 1509 1510 1511 1512
1462 1460 1459 1458 1457 1456 1456 1456 1456 1456 1456 1457 1457 1458 1458 1459 1460 1461 1463 1465 1467 1469 1471 1473 1475 1477 1479 1482 1484 1485 1487 1489 1491 1493 1495 1497 1498 1500 1502 1503 1504 1506 1506
1459 1457 1456 1455 1454 1453 1452 1452 1452 1452 1452 1452 1452 1453 1454 1454 1455 1456 1458 1460 1461 1463 1465 1467 1469 1471 1473 1475 1478 1479 1480 1482 1485 1486 1489 1490 1492 1494 1496 1497 1499 1500 1501
1457 1455 1453 1452 1451 1450 1449 1449 1448 1448 1448 1448 1448 1448 1449 1449 1450 1451 1453 1455 1456 1458 1460 1461 1463 1465 1467 1469 1472 1473 1475 1478 1479 1481 1482 1484 1486 1488 1489 1491 1493 1495 1496
1455 1452 1451 1449 1447 1446 1445 1445 1444 1444 1444 1444 1444 1444 1444 1445 1446 1446 1448 1450 1451 1453 1454 1456 1458 1460 1462 1464 1466 1468 1470 1473 1474 1475 1477 1478 1480 1482 1484 1486 1487 1489 1491
1452 1450 1448 1446 1444 1443 1442 1441 1440 1440 1440 1440 1440 1440 1440 1441 1442 1443 1444 1445 1447 1448 1450 1451 1453 1455 1457 1459 1461 1463 1465 1467 1468 1469 1471 1473 1475 1477 1479 1481 1482 1484 1485
1450 1448 1445 1444 1442 1440 1439 1438 1437 1437 1437 1437 1437 1437 1437 1437 1438 1439 1440 1441 1442 1444 1445 1447 1449 1451 1452 1454 1455 1457 1459 1461 1463 1464 1466 1468 1470 1472 1474 1476 1478 1479 1480
1448 1446 1443 1441 1439 1437 1436 1436 1435 1434 1434 1434 1434 1434 1434 1434 1434 1435 1436 1437 1438 1440 1441 1443 1444 1446 1447 1448 1450 1452 1454 1456 1458 1459 1461 1463 1465 1467 1469 1471 1473 1474 1475
1445 1443 1441 1439 1437 1435 1434 1433 1432 1432 1431 1431 1431 1431 1430 1431 1431 1431 1432 1433 1435 1436 1438 1438 1440 1441 1442 1444 1445 1447 1449 1451 1453 1454 1456 1458 1460 1462 1464 1466 1467 1469 1470
1443 1441 1439 1437 1435 1433 1432 1430 1429 1429 1428 1428 1427 1427 1427 1427 1427 1427 1428 1429 1431 1432 1433 1434 1435 1436 1438 1440 1441 1443 1444 1446 1448 1450 1451 1453 1455 1457 1459 1461 1462 1464 1465
1441 1439 1437 1435 1433 1432 1430 1429 1428 1426 1425 1424 1424 1424 1423 1424 1424 1424 1425 1426 1427 1428 1429 1430 1431 1433 1434 1436 1437 1439 1440 1442 1443 1445 1447 1449 1451 1452 1454 1456 1457 1459 1460
1438 1436 1434 1432 1431 1430 1428 1427 1426 1425 1423 1422 1421 1421 1421 1421 1421 1421 1422 1422 1422 1423 1425 1426 1427 1429 1430 1432 1434 1435 1437 1438 1439 1441 1442 1444 1446 1448 1449 1451 1452 1454 1455
1435 1434 1432 1430 1428 1427 1426 1425 1424 1423 1421 1420 1419 1419 1419 1418 1418 1418 1418 1418 1419 1420 1421 1422 1423 1425 1426 1428 1430 1431 1433 1434 1435 1437 1438 1440 1441 1443 1445 1446 1447 1449 1450
1433 1431 1429 1427 1426 1425 1423 1423 1422 1421 1419 1418 1418 1417 1417 1416 1415 1415 1415 1415 1416 1417 1417 1419 1420 1421 1422 1424 1426 1427 1429 1430 1432 1433 1434 1436 1437 1439 1440 1442 1443 1444 1445
1430 1428 1426 1424 1423 1422 1421 1420 1419 1418 1417 1417 1416 1415 1415 1414 1413 1413 1413 1412 1413 1414 1415 1416 1417 1418 1419 1420 1422 1423 1425 1426 1427 1429 1431 1432 1433 1434 1436 1437 1438 1440 1441
1428 1426 1424 1422 1421 1420 1419 1418 1417 1416 1415 1414 1414 1413 1412 1412 1411 1410 1410 1410 1410 1411 1412 1413 1414 1415 1415 1417 1418 1420 1421 1422 1424 1425 1427 1428 1429 1430 1432 1433 1434 1435 1437
1425 1424 1422 1420 1419 1418 1417 1416 1415 1414 1413 1412 1411 1411 1410 1409 1409 1408 1408 1408 1408 1408 1409 1410 1411 1411 1412 1413 1415 1417 1418 1419 1421 1422 1423 1424 1425 1426 1428 1429 1430 1432 1433
1423 1421 1420 1418 1417 1416 1415 1413 1412 1411 1410 1410 1409 1408 1407 1407 1407 1406 1406 1406 1405 1406 1406 1407 1408 1408 1409 1410 1412 1413 1414 1416 1418 1419 1420 1421 1422 1423 1424 1425 1426 1428 1429
1421 1419 1418 1416 1415 1414 1412 1411 1410 1409 1408 1407 1406 1406 1405 1405 1404 1404 1404 1404 1404 1404 1404 1405 1405 1406 1407 1408 1409 1410 1411 1413 1414 1415 1416 1417 1418 1419 1420 1421 1423 1424 1425